CAL349 RCTP-ROAH

Flight info

Callsign CAL349
Flight time 1h 0m
Altitude 33000
Route KUDOS1D KUDOS R595 SEDKU Y573 MJC Y57 VELNO VELNON
Aircraft B738/M-SDE2E3FGHIRWXY/LB1D1

Departure

Time 2026-04-11 10:20
Airport Taiwan Taoyuan International Airport (RCTP)

Arrival

Time 2026-04-11 11:21
Airport Naha International Airport (ROAH)
Time Latitude Longitude Altitude Speed Heading
2026-04-11 10:10 25.07994 121.23177 100 ft 0 kts 139°
2026-04-11 10:14 25.07997 121.23174 91 ft 2 kts 138°
2026-04-11 10:14 25.08010 121.23162 100 ft 2 kts 139°
2026-04-11 10:14 25.08022 121.23150 100 ft 2 kts 139°
2026-04-11 10:15 25.08035 121.23139 100 ft 2 kts 139°
2026-04-11 10:15 25.08047 121.23127 100 ft 2 kts 139°
2026-04-11 10:15 25.08059 121.23115 98 ft 2 kts 139°
2026-04-11 10:15 25.08070 121.23101 98 ft 2 kts 102°
2026-04-11 10:16 25.08069 121.23083 99 ft 2 kts 68°
2026-04-11 10:16 25.08066 121.23074 100 ft 0 kts 53°
2026-04-11 10:16 25.08067 121.23076 100 ft 2 kts 53°
2026-04-11 10:17 25.08114 121.23136 100 ft 18 kts 48°
2026-04-11 10:17 25.08209 121.23129 100 ft 15 kts 354°
2026-04-11 10:17 25.08310 121.23218 100 ft 26 kts 49°
2026-04-11 10:17 25.08462 121.23411 100 ft 40 kts 49°
2026-04-11 10:18 25.08651 121.23652 99 ft 41 kts 49°
2026-04-11 10:18 25.08835 121.23885 99 ft 39 kts 49°
2026-04-11 10:18 25.09008 121.24107 100 ft 37 kts 49°
2026-04-11 10:18 25.09173 121.24315 99 ft 35 kts 49°
2026-04-11 10:19 25.09314 121.24446 100 ft 21 kts 347°
2026-04-11 10:19 25.09416 121.24350 100 ft 19 kts 294°
2026-04-11 10:19 25.09354 121.24222 101 ft 30 kts 229°
2026-04-11 10:19 25.09019 121.23797 98 ft 115 kts 229°
2026-04-11 10:20 25.08374 121.22972 444 ft 156 kts 230°
2026-04-11 10:20 25.07630 121.22025 1342 ft 160 kts 231°
2026-04-11 10:20 25.06927 121.21124 2428 ft 161 kts 229°
2026-04-11 10:20 25.06123 121.20098 2766 ft 194 kts 228°
2026-04-11 10:21 25.05206 121.18928 3211 ft 207 kts 228°
2026-04-11 10:21 25.04252 121.17710 3874 ft 212 kts 227°
2026-04-11 10:21 25.03391 121.16415 4581 ft 223 kts 244°
2026-04-11 10:21 25.03125 121.14616 4893 ft 256 kts 273°
2026-04-11 10:22 25.03766 121.12731 5571 ft 274 kts 301°
2026-04-11 10:22 25.05162 121.11271 6474 ft 282 kts 321°
2026-04-11 10:22 25.06863 121.10172 7331 ft 285 kts 326°
2026-04-11 10:22 25.08626 121.09152 8155 ft 287 kts 327°
2026-04-11 10:23 25.10394 121.08122 8999 ft 288 kts 326°
2026-04-11 10:23 25.12154 121.07059 9865 ft 288 kts 325°
2026-04-11 10:23 25.13919 121.05965 10485 ft 299 kts 325°
2026-04-11 10:23 25.15778 121.04794 10648 ft 323 kts 325°
2026-04-11 10:24 25.17941 121.03807 10803 ft 354 kts 344°
2026-04-11 10:24 25.20476 121.03834 11240 ft 377 kts
2026-04-11 10:24 25.22875 121.05093 11884 ft 392 kts 35°
2026-04-11 10:24 25.24742 121.07312 12611 ft 398 kts 50°
2026-04-11 10:25 25.26393 121.09795 13246 ft 404 kts 52°
2026-04-11 10:25 25.28006 121.12312 13812 ft 409 kts 52°
2026-04-11 10:25 25.29678 121.14877 14344 ft 414 kts 51°
2026-04-11 10:25 25.31401 121.17442 14922 ft 418 kts 50°
2026-04-11 10:26 25.33169 121.20018 15472 ft 422 kts 50°
2026-04-11 10:26 25.34968 121.22607 16023 ft 427 kts 49°
2026-04-11 10:26 25.36791 121.25223 16556 ft 432 kts 49°
2026-04-11 10:26 25.38632 121.27870 17081 ft 437 kts 49°
2026-04-11 10:27 25.40250 121.30740 17556 ft 447 kts 66°
2026-04-11 10:27 25.40957 121.34044 18112 ft 450 kts 87°
2026-04-11 10:27 25.40790 121.37489 18609 ft 449 kts 103°
2026-04-11 10:27 25.39796 121.40740 19083 ft 446 kts 119°
2026-04-11 10:28 25.38450 121.43761 19558 ft 447 kts 121°
2026-04-11 10:28 25.37015 121.46826 20008 ft 450 kts 121°
2026-04-11 10:28 25.35559 121.49906 20473 ft 454 kts 121°
2026-04-11 10:28 25.34103 121.53015 20928 ft 456 kts 121°
2026-04-11 10:29 25.32655 121.56147 21386 ft 459 kts 121°
2026-04-11 10:29 25.31231 121.59261 21826 ft 462 kts 120°
2026-04-11 10:29 25.29782 121.62447 22259 ft 465 kts 120°
2026-04-11 10:29 25.28329 121.65653 22665 ft 468 kts 120°
2026-04-11 10:30 25.26866 121.68880 23070 ft 472 kts 120°
2026-04-11 10:30 25.25391 121.72129 23474 ft 474 kts 120°
2026-04-11 10:30 25.23908 121.75394 23814 ft 477 kts 120°
2026-04-11 10:30 25.22415 121.78676 24149 ft 479 kts 120°
2026-04-11 10:31 25.20916 121.81970 24480 ft 482 kts 120°
2026-04-11 10:31 25.19428 121.85234 24803 ft 484 kts 120°
2026-04-11 10:31 25.17911 121.88563 25122 ft 486 kts 120°
2026-04-11 10:31 25.16385 121.91906 25435 ft 489 kts 120°
2026-04-11 10:32 25.14849 121.95269 25739 ft 491 kts 120°
2026-04-11 10:32 25.13392 121.98688 26041 ft 496 kts 112°
2026-04-11 10:32 25.12662 122.02433 26313 ft 503 kts 96°
2026-04-11 10:32 25.12456 122.06288 26655 ft 504 kts 94°
2026-04-11 10:33 25.12225 122.10159 26937 ft 507 kts 95°
2026-04-11 10:33 25.11931 122.13988 27197 ft 509 kts 96°
2026-04-11 10:33 25.11590 122.17887 27464 ft 511 kts 97°
2026-04-11 10:33 25.11235 122.21800 27743 ft 513 kts 97°
2026-04-11 10:34 25.10884 122.25720 28011 ft 515 kts 96°
2026-04-11 10:34 25.10538 122.29664 28273 ft 517 kts 96°
2026-04-11 10:34 25.10181 122.33618 28521 ft 519 kts 97°
2026-04-11 10:34 25.09806 122.37584 28760 ft 521 kts 97°
2026-04-11 10:35 25.09428 122.41514 28987 ft 523 kts 97°
2026-04-11 10:35 25.09041 122.45508 29236 ft 525 kts 97°
2026-04-11 10:35 25.08651 122.49518 29462 ft 526 kts 97°
2026-04-11 10:35 25.08262 122.53537 29703 ft 528 kts 97°
2026-04-11 10:36 25.07871 122.57564 30001 ft 528 kts 97°
2026-04-11 10:36 25.07482 122.61582 30319 ft 526 kts 97°
2026-04-11 10:36 25.07092 122.65586 30648 ft 524 kts 97°
2026-04-11 10:36 25.06703 122.69580 30971 ft 523 kts 97°
2026-04-11 10:37 25.06313 122.73569 31266 ft 523 kts 97°
2026-04-11 10:37 25.05927 122.77499 31575 ft 522 kts 97°
2026-04-11 10:37 25.05536 122.81475 31912 ft 521 kts 97°
2026-04-11 10:37 25.05145 122.85439 32235 ft 520 kts 97°
2026-04-11 10:38 25.04753 122.89406 32555 ft 519 kts 97°
2026-04-11 10:38 25.04361 122.93355 32877 ft 518 kts 97°
2026-04-11 10:38 25.03570 123.01290 32903 ft 520 kts 97°
2026-04-11 10:39 25.02757 123.09140 32900 ft 517 kts 97°
2026-04-11 10:39 25.01934 123.17009 32896 ft 516 kts 97°
2026-04-11 10:40 25.01125 123.24867 32900 ft 515 kts 97°
2026-04-11 10:40 25.00328 123.32716 32900 ft 515 kts 97°
2026-04-11 10:41 24.99527 123.40560 32902 ft 515 kts 97°
2026-04-11 10:41 24.98724 123.48364 32901 ft 516 kts 97°
2026-04-11 10:42 24.97910 123.56225 32903 ft 517 kts 98°
2026-04-11 10:42 24.97090 123.64097 32901 ft 517 kts 98°
2026-04-11 10:43 24.95991 123.74592 32904 ft 518 kts 98°
2026-04-11 10:44 24.95024 123.83770 32905 ft 519 kts 98°
2026-04-11 10:44 24.94187 123.91671 32906 ft 519 kts 98°
2026-04-11 10:45 24.93346 123.99574 32905 ft 520 kts 98°
2026-04-11 10:45 24.92613 124.06143 32905 ft 520 kts 98°
2026-04-11 10:46 24.91535 124.15318 32908 ft 520 kts 99°
2026-04-11 10:46 24.90605 124.23213 32911 ft 520 kts 98°
2026-04-11 10:47 24.89835 124.29771 32912 ft 520 kts 98°
2026-04-11 10:47 24.88908 124.37662 32913 ft 519 kts 98°
2026-04-11 10:48 24.87977 124.45553 32905 ft 519 kts 99°
2026-04-11 10:48 24.86890 124.54707 32904 ft 519 kts 99°
2026-04-11 10:49 24.86110 124.61252 32897 ft 519 kts 99°
2026-04-11 10:49 24.85007 124.70459 32900 ft 519 kts 99°
2026-04-11 10:50 24.84221 124.76997 32900 ft 519 kts 99°
2026-04-11 10:50 24.83270 124.84869 32910 ft 519 kts 99°
2026-04-11 10:51 24.82306 124.92733 32898 ft 518 kts 99°
2026-04-11 10:51 24.81327 125.00542 32886 ft 518 kts 99°
2026-04-11 10:52 24.80338 125.08402 32886 ft 519 kts 99°
2026-04-11 10:52 24.79349 125.16266 32886 ft 519 kts 99°
2026-04-11 10:53 24.78431 125.24139 32898 ft 520 kts 93°
2026-04-11 10:53 24.78629 125.28054 32918 ft 520 kts 80°
2026-04-11 10:53 24.79491 125.31909 32904 ft 519 kts 69°
2026-04-11 10:53 24.80989 125.35508 32905 ft 516 kts 56°
2026-04-11 10:54 24.82888 125.38849 32926 ft 515 kts 54°
2026-04-11 10:54 24.86786 125.45472 32920 ft 516 kts 54°
2026-04-11 10:55 24.90650 125.52134 32921 ft 517 kts 55°
2026-04-11 10:55 24.94440 125.58803 32930 ft 517 kts 56°
2026-04-11 10:56 24.98238 125.65541 32942 ft 518 kts 56°
2026-04-11 10:56 25.02040 125.72293 32938 ft 519 kts 56°
2026-04-11 10:57 25.05847 125.79057 32938 ft 519 kts 56°
2026-04-11 10:57 25.09654 125.85825 32939 ft 520 kts 56°
2026-04-11 10:58 25.13435 125.92557 32939 ft 520 kts 56°
2026-04-11 10:58 25.17244 125.99348 32942 ft 520 kts 56°
2026-04-11 10:59 25.21048 126.06142 32942 ft 520 kts 56°
2026-04-11 10:59 25.24852 126.12944 32924 ft 521 kts 56°
2026-04-11 10:59 25.26769 126.16374 32222 ft 527 kts 56°
2026-04-11 11:00 25.28668 126.19775 31488 ft 526 kts 56°
2026-04-11 11:00 25.30586 126.23216 30675 ft 526 kts 56°
2026-04-11 11:00 25.32507 126.26663 29828 ft 527 kts 55°
2026-04-11 11:00 25.34411 126.30085 29115 ft 518 kts 55°
2026-04-11 11:01 25.36294 126.33471 28103 ft 518 kts 55°
2026-04-11 11:01 25.38180 126.36861 27157 ft 517 kts 55°
2026-04-11 11:01 25.40053 126.40233 26401 ft 512 kts 55°
2026-04-11 11:01 25.41905 126.43570 25751 ft 505 kts 55°
2026-04-11 11:02 25.43728 126.46856 25093 ft 499 kts 55°
2026-04-11 11:02 25.45534 126.50112 24406 ft 494 kts 55°
2026-04-11 11:02 25.47298 126.53294 23726 ft 490 kts 55°
2026-04-11 11:02 25.49072 126.56502 22958 ft 487 kts 55°
2026-04-11 11:03 25.50823 126.59687 22135 ft 483 kts 55°
2026-04-11 11:03 25.52561 126.62857 21365 ft 480 kts 55°
2026-04-11 11:03 25.54285 126.66006 20629 ft 476 kts 55°
2026-04-11 11:03 25.55990 126.69121 19921 ft 472 kts 55°
2026-04-11 11:04 25.57684 126.72216 19209 ft 468 kts 56°
2026-04-11 11:04 25.59367 126.75292 18501 ft 465 kts 56°
2026-04-11 11:04 25.61017 126.78308 17731 ft 463 kts 56°
2026-04-11 11:04 25.62676 126.81343 16990 ft 458 kts 56°
2026-04-11 11:05 25.64315 126.84344 16294 ft 453 kts 56°
2026-04-11 11:05 25.65935 126.87311 15588 ft 448 kts 56°
2026-04-11 11:05 25.67539 126.90251 14905 ft 443 kts 57°
2026-04-11 11:05 25.69123 126.93157 14236 ft 438 kts 57°
2026-04-11 11:06 25.70687 126.96027 13595 ft 432 kts 57°
2026-04-11 11:06 25.72229 126.98860 12882 ft 427 kts 57°
2026-04-11 11:06 25.73750 127.01658 12253 ft 420 kts 57°
2026-04-11 11:06 25.75239 127.04397 11793 ft 410 kts 57°
2026-04-11 11:07 25.76669 127.07030 11149 ft 402 kts 57°
2026-04-11 11:07 25.78068 127.09609 10895 ft 382 kts 57°
2026-04-11 11:07 25.79404 127.12073 10709 ft 363 kts 57°
2026-04-11 11:07 25.80675 127.14416 10539 ft 346 kts 57°
2026-04-11 11:08 25.81890 127.16658 10382 ft 331 kts 57°
2026-04-11 11:08 25.83051 127.18801 10238 ft 317 kts 57°
2026-04-11 11:08 25.84164 127.20854 10113 ft 304 kts 57°
2026-04-11 11:08 25.85233 127.22828 9979 ft 293 kts 57°
2026-04-11 11:09 25.86269 127.24740 9732 ft 287 kts 57°
2026-04-11 11:09 25.87276 127.26600 9446 ft 283 kts 57°
2026-04-11 11:09 25.88281 127.28458 9156 ft 279 kts 57°
2026-04-11 11:09 25.89320 127.30274 8870 ft 279 kts 47°
2026-04-11 11:10 25.90842 127.31591 8613 ft 280 kts 24°
2026-04-11 11:10 25.92613 127.32529 8329 ft 282 kts 21°
2026-04-11 11:10 25.94403 127.33413 8027 ft 282 kts 21°
2026-04-11 11:10 25.96196 127.34290 7721 ft 281 kts 21°
2026-04-11 11:11 25.97976 127.35166 7420 ft 281 kts 21°
2026-04-11 11:11 25.99735 127.36038 7124 ft 280 kts 22°
2026-04-11 11:11 26.01518 127.36927 6825 ft 280 kts 22°
2026-04-11 11:11 26.03295 127.37818 6510 ft 281 kts 22°
2026-04-11 11:12 26.05074 127.38713 6205 ft 280 kts 22°
2026-04-11 11:12 26.06848 127.39607 5899 ft 280 kts 23°
2026-04-11 11:12 26.08630 127.40506 5592 ft 284 kts 23°
2026-04-11 11:12 26.10447 127.41424 5281 ft 290 kts 24°
2026-04-11 11:13 26.12306 127.42363 4976 ft 296 kts 24°
2026-04-11 11:13 26.14159 127.43302 4659 ft 296 kts 24°
2026-04-11 11:13 26.16035 127.44252 4325 ft 298 kts 24°
2026-04-11 11:13 26.17948 127.45221 4013 ft 306 kts 24°
2026-04-11 11:14 26.19873 127.46197 3958 ft 300 kts 24°
2026-04-11 11:14 26.21714 127.47131 3828 ft 284 kts 24°
2026-04-11 11:14 26.23488 127.48031 3585 ft 276 kts 25°
2026-04-11 11:14 26.25219 127.48909 3374 ft 271 kts 25°
2026-04-11 11:15 26.26918 127.49772 3151 ft 266 kts 25°
2026-04-11 11:15 26.28563 127.50606 2950 ft 261 kts 25°
2026-04-11 11:15 26.30204 127.51440 2742 ft 257 kts 25°
2026-04-11 11:15 26.31807 127.52253 2619 ft 250 kts 25°
2026-04-11 11:16 26.33196 127.53329 2459 ft 241 kts 52°
2026-04-11 11:16 26.33907 127.54962 2345 ft 231 kts 78°
2026-04-11 11:16 26.34083 127.56694 2261 ft 220 kts 89°
2026-04-11 11:16 26.34138 127.58346 2121 ft 207 kts 90°
2026-04-11 11:17 26.34182 127.59902 2012 ft 195 kts 92°
2026-04-11 11:17 26.33772 127.61227 1985 ft 184 kts 136°
2026-04-11 11:17 26.32649 127.61866 2010 ft 185 kts 162°
2026-04-11 11:17 26.31410 127.62288 1986 ft 186 kts 169°
2026-04-11 11:18 26.30143 127.62524 1874 ft 185 kts 173°
2026-04-11 11:18 26.28893 127.62648 1669 ft 174 kts 176°
2026-04-11 11:18 26.27725 127.62723 1431 ft 163 kts 176°
2026-04-11 11:18 26.26633 127.62791 1230 ft 151 kts 176°
2026-04-11 11:19 26.25640 127.62854 1078 ft 139 kts 176°
2026-04-11 11:19 26.24671 127.62916 875 ft 139 kts 176°
2026-04-11 11:19 26.23727 127.62977 701 ft 137 kts 176°
2026-04-11 11:19 26.22776 127.63037 527 ft 137 kts 176°
2026-04-11 11:20 26.21836 127.63117 382 ft 134 kts 172°
2026-04-11 11:20 26.20899 127.63211 201 ft 135 kts 176°
2026-04-11 11:20 26.19962 127.63257 28 ft 130 kts 177°
2026-04-11 11:20 26.19170 127.63294 15 ft 78 kts 178°
2026-04-11 11:21 26.18886 127.63311 14 ft 26 kts 169°
2026-04-11 11:21 26.18725 127.63379 15 ft 24 kts 150°
2026-04-11 11:21 26.18630 127.63468 16 ft 16 kts 94°
2026-04-11 11:21 26.18717 127.63504 16 ft 15 kts 350°
2026-04-11 11:22 26.18823 127.63499 16 ft 15 kts 360°
2026-04-11 11:22 26.18938 127.63495 16 ft 22 kts 358°
2026-04-11 11:22 26.19142 127.63486 16 ft 34 kts 357°
2026-04-11 11:22 26.19379 127.63474 16 ft 34 kts 357°
2026-04-11 11:23 26.19606 127.63464 16 ft 32 kts 358°
2026-04-11 11:23 26.19820 127.63454 16 ft 30 kts 357°
2026-04-11 11:23 26.20023 127.63443 16 ft 28 kts 358°
2026-04-11 11:23 26.20180 127.63439 16 ft 11 kts 15°
2026-04-11 11:24 26.20215 127.63512 16 ft 12 kts 82°
2026-04-11 11:24 26.20219 127.63647 16 ft 25 kts 88°
2026-04-11 11:24 26.20231 127.63893 16 ft 36 kts 88°
2026-04-11 11:24 26.20241 127.64172 16 ft 36 kts 87°
2026-04-11 11:25 26.20308 127.64317 16 ft 21 kts
2026-04-11 11:25 26.20469 127.64311 16 ft 28 kts 358°
2026-04-11 11:25 26.20661 127.64336 16 ft 27 kts 12°
2026-04-11 11:25 26.20836 127.64379 15 ft 19 kts 12°
2026-04-11 11:26 26.20897 127.64410 16 ft 0 kts 36°
2026-04-11 11:27 26.20936 127.64482 16 ft 19 kts 70°
2026-04-11 11:27 26.20979 127.64665 15 ft 21 kts 93°
2026-04-11 11:27 26.20914 127.64792 18 ft 19 kts 90°
2026-04-11 11:27 26.20924 127.64913 22 ft 13 kts 126°
2026-04-11 11:28 26.20891 127.64968 23 ft 3 kts 120°
2026-04-11 11:28 26.20887 127.64976 21 ft 0 kts 119°